"Pseudo-MPEC" for P11pnj4

Created 2021 Nov 28 2:07:15 UT using Find_Orb

Click here for an explanation of pseudo-MPECs

 
 Astrometry: 
     P11pnj4  C2021 11 25di-.eFQ%%qL34tS4ldZsRA)#j+_soZ=#B(#sa(62.#!(V5O@ILE_F51
     P11pnj4  C2021 11 25*5Ei+r8f5o.qs\YULEdOFF+\O%_,R*k\@j%%Astrometryc=Ex3.F51
     P11pnj4  C2021 11 25p`j);NYEuP1//p;;!awuQV:tFmaTcGxlbn@B9;iL1Rw'nxhEssMhF51
     P11pnj4  C2021 11 25PM[7[D^Y6M0vfR/,d)E0'3/T`e\N;//Rk-j$wE,.AL4t6t8R$]_JF51
     P11pnj4  C2021 11 25K:07P_,_H9*V)/S(;;$A)RW$j/\'KA+Q5;BeTNKredacted;Wg/3F51
     P11pnj4 KC2021 11 26Kr@Sg\W/e/fiSvK4!G?R\5NHi#MFD63o/T#v64+UDryQH$fIK_V.858
     P11pnj4 KC2021 11 26t^0a7d`'RU6,23vGrQEj*Pl/pZVLBPd,nLw3f%eu;K.(!U!,TE7*734
     P11pnj4 KC2021 11 268F!.ZW4#-x/V$-ijfclick.f'3td4)e@]01gHWhereh08yDo-C$c858
     P11pnj4 KC2021 11 26Ge,l+:2gM`Q;i5GG)Xj9pi^ev[D9\cyNom`\tFg5i)Ko/rqlPa,!734
     P11pnj4 KC2021 11 26Pj@'Kt-\t6+gPgbw.wfor@7jNamYHSZxCTYHsT//NE:;P[#MiUGW734
     P11pnj4 1C2021 11 26.92267 01 22 53.85 +29 32 23.8    ~BRAb 20.8 VVNEOCP033
     P11pnj4 1C2021 11 26.92556 01 22 53.95 +29 32 14.1    ~BRAb 20.3 VVNEOCP033
     P11pnj4 KC2021 11 277Z,xexplanation'?ZSSW-2%Zf5in4)0dgk-vm3T*H:]OY]df6As858
     P11pnj4 KC2021 11 27I!.ijQ^$5HCSihaf[Nt@v4#G`D3Qe`fnCVF[55)2hsTO9j$30T!3858

Station data:
(033) Karl Schwarzschild Observatory, Tautenburg  (N50.980140 E11.711240)
   Germany. 1.3-m Schmidt.
(734) Farpoint Observatory, Eskridge  (N38.890107 W96.001400)  US/Kansas.
   Observer G. Hug. 0.69-m reflector + CCD.
(858) Tebbutt Observatory, Edgewood  (N35.093872 W106.220000)  US/New Mexico.
(F51) Pan-STARRS 1, Haleakala  (N20.707235 W156.255910)  US/Hawaii.
   Observers N. Primak, A. Schultz, S. Watters, J. Thiel, T. Goggia. Measurer
   PS1 Science Consortium. 1.8-m Ritchey-Chrétien + CCD.

Orbital elements:  P11pnj4
   Perihelion 2021 Jul 5.163769 +/- 1.41644 TT =  3:55:49 (JD 2459400.663769)
Epoch 2021 Nov 27.0 TT = JDT 2459545.5   Earth MOID: 0.2114   AutoNEOCP
M  94.11041340 +/- 1.9790819        (J2000 ecliptic)
n   0.64977121 +/- 0.00728183       Peri.   57.62009 +/- 1.9369012
a   1.32016760 +/- 0.00986252       Node   249.82542 +/- 0.2456902
e   0.1090737 +/- 0.00422824        Incl.   22.12652 +/- 0.4030202
P   1.52/554.03d           H 21.4   G  0.15   U  9.4  
q 1.17617201 +/- 0.00900732    Q 1.46416319 +/- 0.0134769
From 14 observations 2021 Nov. 25-27 (44.9 hr); mean residual 0".32
Residuals in arcseconds: 
211125 F51  .04-  .11+    211126 858  .63-  .48-    211126 033  .31+  .14+    
211125 F51  .12+  .14-    211126 734  .40-  .23-    211126 033  .60-  .04-    
211125 F51  .02-  .00     211126 858  .35-  .11+    211127 858  .03+  .34+    
211125 F51  .09+  .10+    211126 734  .94+  .21+    211127 858  .43+  .38-    
211125 F51  .17+  .09+    211126 734  .05+  .18+    

Ephemerides (geocentric):
Date (UTC) HH   RA              Dec         delta   r     elong  mag " sig PA
---- -- -- --  -------------   -----------  ------ ------ -----  --- ---- ---
2021 11 28 02  01 24 09.949   +28 29 51.75  .43034 1.3475 140.7 21.4 .605  79
2021 11 28 03  01 24 12.709   +28 27 38.31  .43052 1.3476 140.7 21.4 .635  80
2021 11 28 04  01 24 15.471   +28 25 24.98  .43071 1.3476 140.7 21.4 .667  80
2021 11 28 05  01 24 18.237   +28 23 11.76  .43089 1.3477 140.6 21.4 .699  81
2021 11 28 06  01 24 21.005   +28 20 58.65  .43108 1.3478 140.6 21.4 .732  81
2021 11 28 07  01 24 23.777   +28 18 45.65  .43126 1.3478 140.6 21.4 .766  82
2021 11 28 08  01 24 26.552   +28 16 32.75  .43145 1.3479 140.5 21.4 .800  82
2021 11 28 09  01 24 29.329   +28 14 19.97  .43164 1.3480 140.5 21.4 .835  82
2021 11 28 10  01 24 32.110   +28 12 07.30  .43183 1.3480 140.5 21.4 .871  83
2021 11 28 11  01 24 34.893   +28 09 54.74  .43201 1.3481 140.5 21.4 .908  83
2021 11 28 12  01 24 37.680   +28 07 42.29  .43220 1.3482 140.4 21.5 .945  83
2021 11 28 13  01 24 40.469   +28 05 29.95  .43239 1.3482 140.4 21.5 .982  84
2021 11 28 14  01 24 43.262   +28 03 17.73  .43258 1.3483 140.4 21.5 1.02  84
2021 11 28 15  01 24 46.057   +28 01 05.61  .43277 1.3484 140.4 21.5 1.06  84
2021 11 28 16  01 24 48.856   +27 58 53.61  .43295 1.3484 140.3 21.5 1.10  84
2021 11 28 17  01 24 51.657   +27 56 41.71  .43314 1.3485 140.3 21.5 1.14  84
2021 11 28 18  01 24 54.462   +27 54 29.93  .43333 1.3486 140.3 21.5 1.18  85
2021 11 28 19  01 24 57.269   +27 52 18.26  .43352 1.3486 140.3 21.5 1.22  85
2021 11 28 20  01 25 00.079   +27 50 06.70  .43371 1.3487 140.2 21.5 1.27  85
2021 11 28 21  01 25 02.892   +27 47 55.26  .43391 1.3488 140.2 21.5 1.31  85
2021 11 28 22  01 25 05.709   +27 45 43.93  .43410 1.3488 140.2 21.5 1.35  85
2021 11 28 23  01 25 08.528   +27 43 32.71  .43429 1.3489 140.1 21.5 1.40  86
2021 11 29 00  01 25 11.350   +27 41 21.60  .43448 1.3490 140.1 21.5 1.44  86
2021 11 29 01  01 25 14.175   +27 39 10.61  .43467 1.3490 140.1 21.5 1.49  86
2021 11 29 02  01 25 17.003   +27 36 59.73  .43487 1.3491 140.1 21.5 1.53  86
2021 11 29 03  01 25 19.834   +27 34 48.96  .43506 1.3492 140.0 21.5 1.58  86
2021 11 29 04  01 25 22.668   +27 32 38.31  .43525 1.3492 140.0 21.5 1.63  86
2021 11 29 05  01 25 25.505   +27 30 27.77  .43545 1.3493 140.0 21.5 1.68  86
2021 11 29 06  01 25 28.344   +27 28 17.34  .43564 1.3493 139.9 21.5 1.73  86
2021 11 29 07  01 25 31.187   +27 26 07.03  .43583 1.3494 139.9 21.5 1.77  87
2021 11 29 08  01 25 34.033   +27 23 56.83  .43603 1.3495 139.9 21.5 1.83  87
2021 11 29 09  01 25 36.881   +27 21 46.75  .43622 1.3495 139.9 21.5 1.88  87
2021 11 29 10  01 25 39.733   +27 19 36.78  .43642 1.3496 139.8 21.5 1.93  87
2021 11 29 11  01 25 42.587   +27 17 26.93  .43662 1.3497 139.8 21.5 1.98  87
2021 11 29 12  01 25 45.444   +27 15 17.19  .43681 1.3497 139.8 21.5 2.03  87
2021 11 29 13  01 25 48.304   +27 13 07.57  .43701 1.3498 139.8 21.5 2.09  87
2021 11 29 14  01 25 51.167   +27 10 58.06  .43720 1.3499 139.7 21.5 2.14  87
2021 11 29 15  01 25 54.033   +27 08 48.67  .43740 1.3499 139.7 21.5 2.20  87
2021 11 29 16  01 25 56.902   +27 06 39.39  .43760 1.3500 139.7 21.5 2.25  87
2021 11 29 17  01 25 59.774   +27 04 30.23  .43780 1.3501 139.6 21.5 2.31  87
2021 11 29 18  01 26 02.648   +27 02 21.19  .43800 1.3501 139.6 21.5 2.36  87
2021 11 29 19  01 26 05.526   +27 00 12.26  .43819 1.3502 139.6 21.5 2.42  88
2021 11 29 20  01 26 08.406   +26 58 03.44  .43839 1.3503 139.6 21.5 2.48  88
2021 11 29 21  01 26 11.289   +26 55 54.75  .43859 1.3503 139.5 21.5 2.54  88
2021 11 29 22  01 26 14.175   +26 53 46.17  .43879 1.3504 139.5 21.5 2.60  88
2021 11 29 23  01 26 17.064   +26 51 37.71  .43899 1.3505 139.5 21.5 2.66  88
2021 11 30 00  01 26 19.956   +26 49 29.36  .43919 1.3505 139.4 21.5 2.72  88
2021 11 30 01  01 26 22.851   +26 47 21.13  .43939 1.3506 139.4 21.5 2.78  88